Home   Weather   41°29'N, 81°42'W   Past weeks
Flag for USA

Past Weather in 41°29'N, 81°42'W, USA — Yesterday and Last 2 Weeks

Now
88 °F

Partly sunny.


Feels Like: 91 °F
Forecast: 88 / 71 °F
Wind: 6 mph from West

Location: Cleveland-Hopkins International Airport

Current Time: Jul 18, 2019 at 1:52:52 pm

Latest Report: Jul 18, 2019 at 12:51 pm


Visibility: 10 mi

Pressure: 29.96 "Hg

Humidity: 50%

Dew Point: 67 °F

Location of 41°29'N, 81°42'WLocation

Past Weather in 41°29'N, 81°42'W — Graph

°F

41°29'N, 81°42'W Temperature Yesterday

Maximum temperature yesterday: 84 °F (at 4:51 pm)
Minimum temperature yesterday: 72 °F (at 4:16 am)
Average temperature yesterday: 77 °F

High & Low Weather Summary for the Past Weeks

 TemperatureHumidityPressure
High93 °F (Jul 10, 3:51 pm)94% (Jul 4, 6:51 am)30.15 "Hg (Jul 4, 6:51 am)
Low59 °F (Jul 9, 1:51 am)25% (Jul 14, 5:51 pm)29.79 "Hg (Jul 11, 5:51 pm)
Average78 °F68%29.98 "Hg
* Reported Jul 3 11:51 am — Jul 18 11:51 am, 41°29'N, 81°42'W. Weather by CustomWeather, © 2019

Note: Actual official high and low records may vary slightly from our data, if they occured in-between our weather recording intervals... More about our weather records

Advertising

41°29'N, 81°42'W Weather History for the Previous 24 Hours

Scroll right to see more
 ConditionsComfort  
Time TempWeatherWind HumidityBarometerVisibility
11:51 am
Thu, Jul 18
86 °FPartly sunny.5 mph51%29.95 "Hg10 mi
10:51 am84 °FPassing clouds.5 mph55%29.95 "Hg10 mi
9:51 am81 °FPassing clouds.7 mph58%29.97 "Hg10 mi
8:51 am78 °FPassing clouds.3 mph71%29.97 "Hg10 mi
7:51 am73 °FPassing clouds.3 mph84%29.96 "Hg10 mi
6:51 am70 °FPassing clouds.3 mph90%29.94 "Hg10 mi
5:51 am69 °FPassing clouds.5 mph90%29.94 "Hg10 mi
4:51 am70 °FPassing clouds.3 mph90%29.93 "Hg10 mi
3:51 am71 °FPassing clouds.No wind90%29.93 "Hg10 mi
2:51 am72 °FPassing clouds.3 mph87%29.93 "Hg10 mi
1:51 am73 °FPassing clouds.3 mph90%29.94 "Hg10 mi
12:51 am76 °FPassing clouds.No wind82%29.94 "Hg10 mi
11:51 pm
Wed, Jul 17
77 °FPassing clouds.3 mph88%29.93 "Hg10 mi
10:51 pm77 °FPassing clouds.3 mph88%29.93 "Hg10 mi
10:16 pm78 °FPassing clouds.3 mph82%29.95 "Hg10 mi
9:51 pm78 °FPassing clouds.5 mph82%29.93 "Hg10 mi
8:51 pm79 °FSunny.5 mph74%29.91 "Hg10 mi
7:51 pm82 °FSunny.6 mph67%29.89 "Hg10 mi
6:51 pm83 °FSunny.9 mph68%29.88 "Hg10 mi
5:51 pm84 °FPassing clouds.8 mph65%29.88 "Hg10 mi
4:51 pm84 °FSunny.9 mph67%29.88 "Hg10 mi
3:51 pm82 °FScattered clouds.8 mph70%29.88 "Hg10 mi
2:51 pm82 °FPartly sunny.12 mph74%29.89 "Hg10 mi
1:51 pm81 °FMostly cloudy.6 mph74%29.90 "Hg10 mi
1:23 pm80 °FBroken clouds.13 mph81%29.92 "Hg10 mi
Weather by CustomWeather, © 2019

See weather overview